Regional Weather Roundup
Issued by NWS

Home | Current Version | Previous Version | Graphics & Text | Print | Product List | Glossary Off
Versions: 1 2 3 4 5 6 7 8 9 10 11 12 13 14 15 16 17 18 19 20 21 22 23 24 25 26 27 28 29 30 31 32 33 34 35 36 37 38 39 40 41 42 43 44 45 46 47 48 49 50

000
ASUS43 KDMX 261201
RWRIA

WEATHER ROUNDUP FOR IOWA
NATIONAL WEATHER SERVICE DES MOINES IA
700 AM CDT WED APR 26 2017

NOTE: "FAIR" INDICATES FEW OR NO CLOUDS BELOW 12,000 FEET WITH NO
SIGNIFICANT WEATHER AND/OR OBSTRUCTIONS TO VISIBILITY.

* - THESE STATIONS ARE NOT NWS STATIONS...THUS NOT UNDER NWS
QUALITY CONTROL.  THEY ALSO DO NOT REPORT WEATHER SUCH
AS PRECIPITATION OR FOG.

IAZ001>003-012>014-020>022-031>034-043>046-261300-
   NORTHWEST IOWA

CITY           SKY/WX    TMP DP  RH WIND       PRES   REMARKS
CARROLL *      CLOUDY    39  39 100 NW26G32   29.53F WCI  28
CHEROKEE *     CLOUDY    36  36  99 NW14G22   29.59R WCI  27
DENISON *      CLOUDY    36  36 100 NW17      29.60S WCI  25
LE MARS *      CLOUDY    36  34  93 NW15G23   29.63F WCI  26
ORANGE CITY *  CLOUDY    36  36 100 NW14G25   29.61S WCI  27
SHELDON *      CLOUDY    36  34  93 NW17G23   29.58R WCI  25
SIOUX CITY     CLOUDY    35  33  92 NW25G33   29.63S WCI  23
6HR MIN TEMP:  35; 6HR MAX TEMP:  38;

SPENCER        CLOUDY    38  36  92 NW17      29.55R WCI  28
6HR MIN TEMP:  38; 6HR MAX TEMP:  41; 6HR PCP:  0.02;

STORM LAKE *   CLOUDY    36  36 100 NW22      29.55S FOG     WCI  24
$$

IAZ055>058-069>071-079>083-090>094-261300-
   SOUTHWEST IOWA

CITY           SKY/WX    TMP DP  RH WIND       PRES   REMARKS
ATLANTIC *     CLOUDY    39  37  93 NW21G31   29.57R WCI  29
AUDUBON *      CLOUDY    37  36  93 NW14G24   29.56R WCI  29
CLARINDA *     CLOUDY    39  37  93 NW14G21   29.62R WCI  31
COUNCIL BLFS * CLOUDY    36  36 100 NW22G31   29.61R WCI  24
CRESTON *      CLOUDY    39  37  93 NW22G28   29.55S WCI  29
HARLAN  *      CLOUDY    37  37 100 NW20G26   29.62R WCI  27
LAMONI         CLOUDY    42  40  92 NW20G28   29.53R
6HR MIN TEMP:  42; 6HR MAX TEMP:  46; 6HR PCP:  0.74;

RED OAK *      CLOUDY    39  36  87 NW14G22   29.61R WCI  31
SHENANDOAH *   CLOUDY    39  36  87 N14       29.62R WCI  31
$$

IAZ047>049-059>061-072>074-084-261300-
   CENTRAL IOWA

CITY           SKY/WX    TMP DP  RH WIND       PRES   REMARKS
AMES           CLOUDY    44  42  93 NW16      29.49R
6HR MIN TEMP:  44; 6HR MAX TEMP:  49;

ANKENY *       MIX PCPN  43  41  93 NW14G24   29.50F
BOONE *        CLOUDY    41  41 100 NW17G26   29.49R FOG
CHARITON *     CLOUDY    43  41  93 NW20G26   29.49R
DES MOINES     LGT RAIN  44  41  89 W17       29.50S
6HR MIN TEMP:  44; 6HR MAX TEMP:  49; 6HR PCP:  0.02;

GRINNELL*      RAIN      46  44  95 W17G23    29.46S
KNOXVILLE *    RAIN      45  43  93 NW15      29.46S
MARSHALLTOWN   LGT RAIN  46  44  93 W16       29.45R
6HR MIN TEMP:  46; 6HR MAX TEMP:  55; 6HR PCP: TRACE;

NEWTON *       CLOUDY    45  43  93 W14G21    29.46S FOG
PELLA *        LGT RAIN  45  43  95 NW13G18   29.48S
PERRY *        CLOUDY    41  39  92 NW14G23   29.52S
$$

IAZ004>006-015-016-023>025-035-036-261300-
   NORTH CENTRAL IOWA

CITY           SKY/WX    TMP DP  RH WIND       PRES   REMARKS
ALGONA *       MIX PCPN  41  41 100 NW20G31   29.49R
CLARION *      CLOUDY    43  43 100 NW20G26   29.47R FOG
ESTHERVILLE    CLOUDY    37  37 100 NW24G30   29.52R FOG     WCI  26
6HR MIN TEMP:  37; 6HR MAX TEMP:  41; 6HR PCP:  0.05;

FORT DODGE *   CLOUDY    39  36  87 NW15G23   29.51R WCI  31
MASON CITY     CLOUDY    47  45  93 NW17G24   29.44R FOG
6HR MIN TEMP:  47; 6HR MAX TEMP:  53; 6HR PCP: TRACE;

FOREST CITY *  CLOUDY    43  43 100 NW15G25   29.45R
WEBSTER CITY * MIX PCPN  43  41  93 NW22G32   29.47R
IOWA FALLS *   CLOUDY    46  43  92 W18       29.46R
$$

IAZ007>011-017>019-026>030-037>042-050>054-066-261300-
   NORTHEAST IOWA

CITY           SKY/WX    TMP DP  RH WIND       PRES   REMARKS
CEDAR RAPIDS   CLOUDY    51  51 100 W13       29.39R FOG
6HR MIN TEMP:  51; 6HR MAX TEMP:  60; 6HR PCP:  0.07;

CHARLES CITY * CLOUDY    50  50 100 W14       29.40R FOG
CLINTON *      LGT RAIN  60  56  86 SW12      29.42R
DECORAH *      DRIZZLE   55  55 100 CALM      29.37R
DUBUQUE        MOCLDY    57  55  93 S10       29.40R
6HR MIN TEMP:  56; 6HR MAX TEMP:  62; 6HR PCP:  0.01;

MONTICELLO *   CLOUDY    59  55  88 CALM      29.38R
OELWEIN *      CLOUDY    52  52 100 W13       29.39S FOG
WATERLOO       CLOUDY    50  47  89 W9        29.41S
6HR MIN TEMP:  50; 6HR MAX TEMP:  57; 6HR PCP: TRACE;

$$

IAZ064-065-067-068-078-261300-
   EAST CENTRAL IOWA

CITY           SKY/WX    TMP DP  RH WIND       PRES   REMARKS
DAVENPORT      LGT RAIN  60  58  92 S8        29.42R
6HR MIN TEMP:  60; 6HR MAX TEMP:  70; 6HR PCP:  0.10;

IOWA CITY      CLOUDY    54  50  86 W13       29.42R
6HR MIN TEMP:  54; 6HR MAX TEMP:  65;

MUSCATINE *    CLOUDY    57  55  94 SW5       29.42R
QUAD CITIES    RAIN      61  56  83 S8        29.42R
6HR MIN TEMP:  61; 6HR MAX TEMP:  72; 6HR PCP:  0.03;

$$

IAZ062-063-075>077-085>089-095>099-261300-
   SOUTHEAST IOWA

CITY           SKY/WX    TMP DP  RH WIND       PRES   REMARKS
BURLINGTON     LGT RAIN  61  61 100 E10       29.33F FOG
6HR MIN TEMP:  60; 6HR MAX TEMP:  70; 6HR PCP:  0.27;

FAIRFIELD *    CLOUDY    50  48  93 W15       29.43R FOG
FORT MADISON * CLOUDY    63  61  94 SW8       29.42R FOG
KEOKUK *       CLOUDY    61  61 100 W7G15     29.40R
OSKALOOSA *    LGT RAIN  46  45  93 NW20      29.45R
CENTERVILLE *  MOCLDY    45  45 100 W12       29.49R
OTTUMWA        LGT RAIN  48  47  96 NW16G24   29.44R
6HR MIN TEMP:  48; 6HR MAX TEMP:  58; 6HR PCP:  0.02;

WASHINGTON *   LGT RAIN  52  50  93 NW14      29.41F
$$

ABBREVIATIONS USED IN REMARKS
   TC - TEMPERATURES IN CELSIUS
  WCI - WIND CHILL INDEX
   HX - HEAT INDEX
  VSB - VISIBILITY
$$





USA.gov is the U.S. government's official web portal to all federal, state and local government web resources and services.